Location: Cabeza de los Veneras
(40.2000°N, 5.2000°W)
Time: 05:01:20
(UTC+00:00)

BlueWalker 3 - Pass Details

Date: 24 June 2024
Orbit: 480 x 491 km, 53.2° (Epoch: 21 July)

Event Time Altitude Azimuth Distance (km) Brightness Sun altitude
Rises 20:48:09 0° 271° (W) 2,539 6.4 -9.1°
Reaches altitude 10° 20:50:47 10° 290° (WNW) 1,659 5.8 -9.4°
Maximum altitude 20:53:33 19° 338° (NNW) 1,189 4.8 -9.8°
Drops below altitude 10° 20:56:20 10° 26° (NNE) 1,660 4.8 -10.2°
Sets 20:58:57 0° 44° (NE) 2,540 5.5 -10.6°
